.
WxDataArchive / Data Records for 2012-08-30
2012-08-29 August 2012 2012-08-31

Data Records for Thursday, 30 August 2012

Time	Temp	Chill	HIndex	Humid	Dewpt	 Wind 	HiWind	WindDir	Rain 	Barom 
-----	----	-----	------	-----	-----	------	------	-------	-----	----- 
00:00	62.7	62.7	62.7	86	58.4	0	0	---	0.00	30.036 
00:05	62.6	62.6	62.6	86	58.3	0	0	---	0.00	30.036 
00:10	62.4	62.4	62.4	86	58.2	0	0	---	0.00	30.036 
00:15	62.3	62.3	62.3	87	58.4	0	0	---	0.00	30.037 
00:20	62.1	62.1	62.1	87	58.2	0	0	---	0.00	30.037 
00:25	62.0	62.0	62.0	87	58.1	0	0	---	0.00	30.037 
00:30	61.8	61.8	61.8	88	58.2	0	0	---	0.00	30.046 
00:35	61.6	61.6	61.6	88	58.0	0	0	---	0.00	30.046 
00:40	61.6	61.6	61.6	88	58.0	0	0	---	0.00	30.046 
00:45	61.5	61.5	61.5	88	57.9	0	0	---	0.00	30.051 
00:50	61.3	61.3	61.3	88	57.7	0	0	---	0.00	30.051 
00:55	61.2	61.2	61.2	89	57.9	0	0	---	0.00	30.051 
01:00	61.0	61.0	61.0	89	57.7	0	0	---	0.00	30.049 
01:05	60.9	60.9	60.9	89	57.6	0	0	---	0.00	30.049 
01:10	60.7	60.7	60.7	89	57.4	0	0	---	0.00	30.049 
01:15	60.5	60.5	60.5	89	57.2	0	0	---	0.00	30.044 
01:20	60.5	60.5	60.5	89	57.2	0	0	---	0.00	30.044 
01:25	60.4	60.4	60.4	89	57.1	0	0	---	0.00	30.044 
01:30	60.2	60.2	60.2	90	57.3	0	0	---	0.00	30.042 
01:35	60.1	60.1	60.1	90	57.2	0	0	---	0.00	30.042 
01:40	59.9	59.9	59.9	90	57.0	0	0	---	0.00	30.042 
01:45	59.9	59.9	59.9	90	57.0	0	0	---	0.00	30.038 
01:50	59.8	59.8	59.8	90	56.9	0	0	---	0.00	30.038 
01:55	59.6	59.6	59.6	90	56.7	0	0	---	0.00	30.038 
02:00	59.6	59.6	59.6	91	57.0	0	0	---	0.00	30.039 
02:05	59.5	59.5	59.5	91	56.9	0	0	---	0.00	30.039 
02:10	59.3	59.3	59.3	91	56.7	0	0	---	0.00	30.039 
02:15	59.2	59.2	59.2	91	56.6	0	0	---	0.00	30.036 
02:20	59.2	59.2	59.2	91	56.6	0	0	---	0.00	30.036 
02:25	59.0	59.0	59.0	91	56.4	0	0	---	0.00	30.036 
02:30	59.0	59.0	59.0	91	56.4	0	0	---	0.00	30.039 
02:35	58.9	58.9	58.9	91	56.3	0	0	---	0.00	30.039 
02:40	58.7	58.7	58.7	91	56.1	0	0	---	0.00	30.039 
02:45	58.6	58.6	58.6	92	56.3	0	0	---	0.00	30.044 
02:50	58.6	58.6	58.6	92	56.3	0	0	---	0.00	30.044 
02:55	58.6	58.6	58.6	92	56.3	0	0	---	0.00	30.044 
03:00	58.6	58.6	58.6	92	56.3	0	0	---	0.00	30.048 
03:05	58.6	58.6	58.6	92	56.3	0	0	---	0.00	30.048 
03:10	58.6	58.6	58.6	92	56.3	0	0	---	0.00	30.048 
03:15	58.4	58.4	58.4	92	56.1	0	0	---	0.00	30.046 
03:20	58.4	58.4	58.4	92	56.1	0	0	---	0.00	30.046 
03:25	58.3	58.3	58.3	92	56.0	0	0	---	0.00	30.046 
03:30	58.3	58.3	58.3	93	56.3	0	0	---	0.00	30.047 
03:35	58.1	58.1	58.1	93	56.1	0	0	---	0.00	30.047 
03:40	58.1	58.1	58.1	93	56.1	0	0	---	0.00	30.047 
03:45	58.0	58.0	58.0	93	56.0	0	0	---	0.00	30.046 
03:50	57.8	57.8	57.8	93	55.8	0	0	---	0.00	30.046 
03:55	57.8	57.8	57.8	93	55.8	0	0	---	0.00	30.046 
04:00	57.6	57.6	57.6	93	55.6	0	0	---	0.00	30.041 
04:05	57.5	57.5	57.5	93	55.5	0	0	---	0.00	30.041 
04:10	57.3	57.3	57.3	93	55.3	0	0	---	0.00	30.041 
04:15	57.2	57.2	57.2	93	55.2	0	0	---	0.00	30.038 
04:20	57.0	57.0	57.0	93	55.0	0	0	---	0.00	30.038 
04:25	57.0	57.0	57.0	93	55.0	0	0	---	0.00	30.038 
04:30	56.9	56.9	56.9	93	54.9	0	0	---	0.00	30.038 
04:35	56.9	56.9	56.9	93	54.9	0	0	---	0.00	30.038 
04:40	56.7	56.7	56.7	93	54.7	0	0	---	0.00	30.038 
04:45	56.7	56.7	56.7	93	54.7	0	0	---	0.00	30.039 
04:50	56.6	56.6	56.6	93	54.6	0	0	---	0.00	30.039 
04:55	56.6	56.6	56.6	93	54.6	0	0	---	0.00	30.039 
05:00	56.5	56.5	56.5	93	54.5	0	0	---	0.00	30.038 
05:05	56.5	56.5	56.5	94	54.8	0	0	---	0.00	30.038 
05:10	56.5	56.5	56.5	94	54.8	0	0	---	0.00	30.038 
05:15	56.3	56.3	56.3	94	54.6	0	0	---	0.00	30.042 
05:20	56.3	56.3	56.3	94	54.6	0	0	---	0.00	30.042 
05:25	56.2	56.2	56.2	94	54.5	0	0	---	0.00	30.042 
05:30	56.2	56.2	56.2	94	54.5	0	0	---	0.00	30.046 
05:35	56.0	56.0	56.0	94	54.3	0	0	---	0.00	30.046 
05:40	55.9	55.9	55.9	94	54.2	0	0	---	0.00	30.046 
05:45	55.9	55.9	55.9	94	54.2	0	0	---	0.00	30.051 
05:50	55.7	55.7	55.7	94	54.0	0	0	---	0.00	30.051 
05:55	55.6	55.6	55.6	94	53.9	0	0	---	0.00	30.051 
06:00	55.6	55.6	55.6	94	53.9	0	0	---	0.00	30.051 
06:05	55.4	55.4	55.4	94	53.7	0	0	---	0.00	30.051 
06:10	55.3	55.3	55.3	94	53.6	0	0	---	0.00	30.051 
06:15	55.1	55.1	55.1	94	53.4	0	0	---	0.00	30.055 
06:20	55.1	55.1	55.1	94	53.4	0	0	---	0.00	30.055 
06:25	55.0	55.0	55.0	94	53.3	0	0	---	0.00	30.055 
06:30	55.0	55.0	55.0	94	53.3	0	0	---	0.00	30.059 
06:35	55.0	55.0	55.0	94	53.3	0	0	---	0.00	30.059 
06:40	55.0	55.0	55.0	94	53.3	0	0	---	0.00	30.059 
06:45	54.8	54.8	54.8	94	53.1	0	0	---	0.00	30.068 
06:50	54.8	54.8	54.8	94	53.1	0	0	---	0.00	30.068 
06:55	54.7	54.7	54.7	94	53.0	0	0	---	0.00	30.068 
07:00	54.7	54.7	54.7	94	53.0	0	0	---	0.00	30.068 
07:05	54.5	54.5	54.5	94	52.8	0	0	---	0.00	30.068 
07:10	54.5	54.5	54.5	94	52.8	0	0	---	0.00	30.068 
07:15	54.5	54.5	54.5	94	52.8	0	0	---	0.00	30.074 
07:20	54.7	54.7	54.7	94	53.0	0	0	---	0.00	30.074 
07:25	54.7	54.7	54.7	94	53.0	0	0	---	0.00	30.074 
07:30	54.8	54.8	54.8	95	53.4	0	0	---	0.00	30.080 
07:35	55.0	55.0	55.0	95	53.6	0	0	---	0.00	30.080 
07:40	55.1	55.1	55.1	95	53.7	0	0	---	0.00	30.080 
07:45	55.3	55.3	55.3	95	53.9	0	0	---	0.00	30.091 
07:50	55.4	55.4	55.4	95	54.0	0	0	---	0.00	30.091 
07:55	55.7	55.7	55.7	95	54.3	0	0	---	0.00	30.091 
08:00	56.2	56.2	56.2	95	54.8	0	0	---	0.00	30.088 
08:05	56.5	56.5	56.5	95	55.1	0	0	---	0.00	30.088 
08:10	56.7	56.7	56.7	95	55.3	0	0	---	0.00	30.088 
08:15	57.2	57.2	57.2	95	55.8	0	0	---	0.00	30.095 
08:20	57.8	57.8	57.8	95	56.4	0	0	---	0.00	30.095 
08:25	58.3	58.3	58.3	95	56.9	0	0	---	0.00	30.095 
08:30	58.7	58.7	58.7	95	57.3	0	0	---	0.00	30.098 
08:35	59.3	59.3	59.3	95	57.9	0	0	---	0.00	30.098 
08:40	59.8	59.8	59.8	95	58.4	0	0	---	0.00	30.098 
08:45	59.9	59.9	59.9	95	58.5	0	0	---	0.00	30.102 
08:50	60.4	60.4	60.4	94	58.7	0	0	---	0.00	30.102 
08:55	60.5	60.5	60.5	94	58.8	0	1	90	0.00	30.102 
09:00	60.7	60.7	60.7	93	58.7	0	1	90	0.00	30.103 
09:05	61.2	61.2	61.2	92	58.9	0	1	90	0.00	30.103 
09:10	61.6	61.6	61.6	91	58.9	0	1	90	0.00	30.103 
09:15	62.1	62.1	62.1	88	58.5	0	1	90	0.00	30.107 
09:20	62.7	62.7	62.7	84	57.8	0	2	90	0.00	30.107 
09:25	63.4	63.4	63.4	80	57.1	0	1	90	0.00	30.107 
09:30	64.2	64.2	64.2	79	57.5	0	1	90	0.00	30.105 
09:35	64.8	64.8	64.8	77	57.4	0	1	90	0.00	30.105 
09:40	65.6	65.6	65.6	75	57.5	0	1	90	0.00	30.105 
09:45	66.1	66.1	66.1	73	57.2	0	3	90	0.00	30.103 
09:50	66.8	66.8	66.8	73	57.9	0	1	90	0.00	30.103 
09:55	67.4	67.4	67.4	71	57.7	0	2	90	0.00	30.103 
10:00	68.1	68.1	68.1	70	57.9	0	1	90	0.00	30.102 
10:05	68.8	68.8	68.8	68	57.8	0	2	90	0.00	30.102 
10:10	69.3	69.3	69.3	68	58.3	0	3	90	0.00	30.102 
10:15	69.9	69.9	69.9	66	58.0	0	2	90	0.00	30.099 
10:20	70.9	70.9	70.9	65	58.5	0	2	90	0.00	30.099 
10:25	71.8	71.8	71.8	62	58.1	0	1	90	0.00	30.099 
10:30	72.8	72.8	72.8	61	58.6	0	2	90	0.00	30.096 
10:35	73.7	73.7	73.7	58	58.0	1	3	90	0.00	30.096 
10:40	74.4	74.4	74.4	57	58.2	0	2	135	0.00	30.096 
10:45	75.1	75.1	77.6	56	58.3	0	2	135	0.00	30.097 
10:50	75.8	75.8	77.9	57	59.5	0	1	135	0.00	30.097 
10:55	76.3	76.3	78.3	54	58.4	0	2	135	0.00	30.097 
11:00	76.7	76.7	78.5	53	58.3	1	3	90	0.00	30.099 
11:05	76.8	76.8	78.5	52	57.8	1	3	90	0.00	30.099 
11:10	77.2	77.2	78.8	54	59.2	0	2	90	0.00	30.099 
11:15	77.6	77.6	79.0	51	58.0	1	3	90	0.00	30.100 
11:20	78.1	78.1	79.3	49	57.4	1	2	90	0.00	30.100 
11:25	78.1	78.1	79.3	50	57.9	1	2	90	0.00	30.100 
11:30	78.1	78.1	79.3	50	57.9	1	5	112	0.00	30.099 
11:35	78.3	78.3	79.4	50	58.1	1	4	112	0.00	30.099 
11:40	78.8	78.8	79.8	50	58.6	0	4	158	0.00	30.099 
11:45	79.4	79.4	80.1	48	58.0	1	4	68	0.00	30.098 
11:50	79.9	79.9	80.4	47	57.8	1	2	68	0.00	30.098 
11:55	79.8	79.8	80.3	46	57.2	2	5	90	0.00	30.098 
12:00	79.6	79.6	80.3	48	58.2	1	3	248	0.00	30.098 
12:05	79.6	79.6	80.3	48	58.2	1	3	248	0.00	30.098 
12:10	79.9	79.9	80.5	48	58.4	1	3	90	0.00	30.098 
12:15	79.9	79.9	80.7	50	59.6	1	2	90	0.00	30.095 
12:20	80.1	80.1	80.7	48	58.6	1	4	292	0.00	30.095 
12:25	80.1	80.1	80.6	47	58.0	1	3	338	0.00	30.095 
12:30	80.3	80.3	81.0	49	59.4	0	2	225	0.00	30.091 
12:35	80.7	80.7	81.0	46	58.0	1	4	225	0.00	30.091 
12:40	80.9	80.9	81.2	46	58.2	2	5	90	0.00	30.091 
12:45	81.1	81.1	81.6	48	59.5	1	3	112	0.00	30.082 
12:50	81.1	81.1	81.5	47	58.9	1	4	112	0.00	30.082 
12:55	81.4	81.4	81.6	46	58.6	1	3	68	0.00	30.082 
13:00	81.8	81.8	81.9	45	58.4	1	4	90	0.00	30.078 
13:05	82.0	82.0	82.2	46	59.1	1	3	292	0.00	30.078 
13:10	82.0	82.0	81.8	43	57.3	1	4	292	0.00	30.078 
13:15	81.8	81.8	81.5	42	56.4	1	3	292	0.00	30.076 
13:20	82.2	82.2	81.7	41	56.1	1	6	292	0.00	30.076 
13:25	82.4	82.4	82.0	42	57.0	1	6	315	0.00	30.076 
13:30	82.4	82.4	82.2	43	57.6	1	2	338	0.00	30.070 
13:35	82.8	82.8	82.4	42	57.3	1	3	90	0.00	30.070 
13:40	83.2	83.2	83.0	43	58.3	1	3	22	0.00	30.070 
13:45	83.6	83.6	83.4	43	58.7	1	3	22	0.00	30.062 
13:50	83.6	83.6	83.0	41	57.4	1	3	22	0.00	30.062 
13:55	83.4	83.4	83.0	42	57.9	1	3	68	0.00	30.062 
14:00	83.8	83.8	83.9	45	60.2	1	3	68	0.00	30.058 
14:05	84.0	84.0	83.1	39	56.3	1	4	68	0.00	30.058 
14:10	84.1	84.1	83.7	42	58.5	2	5	112	0.00	30.058 
14:15	84.0	84.0	83.4	41	57.7	0	3	90	0.00	30.054 
14:20	84.0	84.0	83.6	42	58.4	1	2	90	0.00	30.054 
14:25	84.1	84.1	83.6	41	57.8	1	3	68	0.00	30.054 
14:30	84.3	84.3	84.1	43	59.3	1	3	68	0.00	30.050 
14:35	84.5	84.5	83.6	39	56.8	1	3	68	0.00	30.050 
14:40	84.3	84.3	83.4	39	56.6	1	4	292	0.00	30.050 
14:45	84.5	84.5	84.0	41	58.2	1	3	90	0.00	30.046 
14:50	84.7	84.7	84.0	40	57.7	1	4	270	0.00	30.046 
14:55	84.9	84.9	83.9	38	56.4	1	3	270	0.00	30.046 
15:00	85.1	85.1	84.1	38	56.6	1	4	270	0.00	30.038 
15:05	85.7	85.7	85.1	40	58.6	0	2	22	0.00	30.038 
15:10	86.1	86.1	84.8	36	56.0	1	3	68	0.00	30.038 
15:15	86.1	86.1	85.2	38	57.5	0	2	68	0.00	30.035 
15:20	85.7	85.7	84.2	35	54.9	1	4	315	0.00	30.035 
15:25	85.5	85.5	84.0	35	54.7	1	2	0	0.00	30.035 
15:30	85.7	85.7	84.4	36	55.6	0	2	0	0.00	30.031 
15:35	85.7	85.7	84.2	35	54.9	1	2	0	0.00	30.031 
15:40	85.7	85.7	84.7	38	57.1	1	3	90	0.00	30.031 
15:45	85.7	85.7	84.4	36	55.6	0	2	90	0.00	30.029 
15:50	85.9	85.9	84.2	34	54.2	0	3	292	0.00	30.029 
15:55	85.9	85.9	84.4	35	55.0	1	4	90	0.00	30.029 
16:00	86.1	86.1	85.0	37	56.7	0	2	90	0.00	30.024 
16:05	86.1	86.1	84.6	35	55.2	1	4	45	0.00	30.024 
16:10	86.1	86.1	84.6	35	55.2	1	3	45	0.00	30.024 
16:15	86.3	86.3	85.0	36	56.2	0	2	22	0.00	30.022 
16:20	86.3	86.3	84.8	35	55.4	1	3	270	0.00	30.022 
16:25	86.1	86.1	84.4	34	54.4	0	2	270	0.00	30.022 
16:30	86.1	86.1	84.3	33	53.6	0	1	270	0.00	30.017 
16:35	85.9	85.9	84.1	33	53.4	1	4	270	0.00	30.017 
16:40	85.9	85.9	84.4	35	55.0	0	2	112	0.00	30.017 
16:45	85.9	85.9	84.2	34	54.2	0	3	68	0.00	30.015 
16:50	85.7	85.7	84.4	36	55.6	0	2	248	0.00	30.015 
16:55	85.5	85.5	83.7	33	53.1	1	3	248	0.00	30.015 
17:00	85.5	85.5	84.0	35	54.7	0	2	248	0.00	30.012 
17:05	85.3	85.3	83.8	35	54.5	1	3	90	0.00	30.012 
17:10	85.1	85.1	83.8	36	55.1	1	3	270	0.00	30.012 
17:15	85.1	85.1	83.6	35	54.3	1	4	270	0.00	30.009 
17:20	84.9	84.9	83.3	34	53.4	1	3	270	0.00	30.009 
17:25	84.9	84.9	83.4	35	54.2	1	4	68	0.00	30.009 
17:30	84.9	84.9	83.9	38	56.4	0	3	0	0.00	30.006 
17:35	84.9	84.9	83.4	35	54.2	0	3	45	0.00	30.006 
17:40	84.7	84.7	83.5	37	55.5	1	2	45	0.00	30.006 
17:45	84.7	84.7	83.5	37	55.5	0	2	45	0.00	30.006 
17:50	84.7	84.7	83.7	38	56.2	0	3	0	0.00	30.006 
17:55	84.7	84.7	83.8	39	57.0	0	1	0	0.00	30.006 
18:00	84.5	84.5	83.3	37	55.3	0	3	0	0.00	30.010 
18:05	84.3	84.3	83.3	38	55.9	0	1	292	0.00	30.010 
18:10	84.1	84.1	83.1	38	55.7	1	3	315	0.00	30.010 
18:15	84.0	84.0	83.1	39	56.3	0	3	22	0.00	30.008 
18:20	84.0	84.0	83.1	39	56.3	1	4	22	0.00	30.008 
18:25	83.8	83.8	82.9	39	56.2	0	2	112	0.00	30.008 
18:30	83.6	83.6	82.9	40	56.7	0	3	112	0.00	30.004 
18:35	83.4	83.4	82.7	40	56.5	0	2	112	0.00	30.004 
18:40	83.2	83.2	82.7	41	57.0	0	2	112	0.00	30.004 
18:45	83.0	83.0	82.5	41	56.8	0	2	112	0.00	30.004 
18:50	83.0	83.0	82.5	41	56.8	0	2	112	0.00	30.004 
18:55	82.8	82.8	82.4	42	57.3	0	2	112	0.00	30.004 
19:00	82.6	82.6	82.2	42	57.2	0	1	112	0.00	30.004 
19:05	82.4	82.4	82.0	42	57.0	0	1	112	0.00	30.004 
19:10	82.4	82.4	81.9	41	56.3	0	2	112	0.00	30.004 
19:15	82.4	82.4	81.9	41	56.3	0	1	112	0.00	30.003 
19:20	82.2	82.2	81.9	42	56.8	0	0	---	0.00	30.003 
19:25	82.0	82.0	81.6	41	55.9	0	1	112	0.00	30.003 
19:30	81.8	81.8	81.5	42	56.4	0	1	112	0.00	30.000 
19:35	81.6	81.6	81.3	42	56.3	0	0	---	0.00	30.000 
19:40	81.2	81.2	81.1	43	56.5	0	0	---	0.00	30.000 
19:45	81.1	81.1	81.0	43	56.5	0	0	---	0.00	30.001 
19:50	80.7	80.7	80.7	43	56.1	0	0	---	0.00	30.001 
19:55	80.5	80.5	80.6	44	56.6	0	0	---	0.00	30.001 
20:00	80.1	80.1	80.3	44	56.2	0	0	---	0.00	30.003 
20:05	79.8	79.8	80.2	45	56.5	0	0	---	0.00	30.003 
20:10	79.2	79.2	79.8	46	56.6	0	0	---	0.00	30.003 
20:15	78.8	78.8	79.6	47	56.8	0	0	---	0.00	30.001 
20:20	78.1	78.1	79.2	47	56.2	0	0	---	0.00	30.001 
20:25	77.7	77.7	79.0	49	57.0	0	0	---	0.00	30.001 
20:30	77.2	77.2	78.7	50	57.1	0	0	---	0.00	30.003 
20:35	76.5	76.5	78.4	52	57.5	0	0	---	0.00	30.003 
20:40	76.0	76.0	78.1	52	57.1	0	0	---	0.00	30.003 
20:45	75.3	75.3	77.7	54	57.5	0	0	---	0.00	30.008 
20:50	74.7	74.7	74.7	54	56.9	0	0	---	0.00	30.008 
20:55	74.2	74.2	74.2	55	57.0	0	0	---	0.00	30.008 
21:00	73.7	73.7	73.7	57	57.5	0	0	---	0.00	30.011 
21:05	73.2	73.2	73.2	58	57.5	0	0	---	0.00	30.011 
21:10	72.8	72.8	72.8	59	57.6	0	0	---	0.00	30.011 
21:15	72.5	72.5	72.5	60	57.8	0	0	---	0.00	30.013 
21:20	72.1	72.1	72.1	61	57.9	0	0	---	0.00	30.013 
21:25	71.6	71.6	71.6	62	57.9	0	0	---	0.00	30.013 
21:30	71.1	71.1	71.1	63	57.9	0	0	---	0.00	30.019 
21:35	70.8	70.8	70.8	64	58.0	0	0	---	0.00	30.019 
21:40	70.3	70.3	70.3	65	58.0	0	0	---	0.00	30.019 
21:45	69.9	69.9	69.9	66	58.0	0	0	---	0.00	30.021 
21:50	69.6	69.6	69.6	68	58.6	0	0	---	0.00	30.021 
21:55	69.3	69.3	69.3	68	58.3	0	0	---	0.00	30.021 
22:00	69.1	69.1	69.1	69	58.5	0	0	---	0.00	30.023 
22:05	68.9	68.9	68.9	70	58.7	0	0	---	0.00	30.023 
22:10	68.8	68.8	68.8	71	59.0	0	0	---	0.00	30.023 
22:15	68.6	68.6	68.6	71	58.8	0	0	---	0.00	30.014 
22:20	68.4	68.4	68.4	71	58.6	0	0	---	0.00	30.014 
22:25	68.3	68.3	68.3	72	58.9	0	0	---	0.00	30.014 
22:30	68.4	68.4	68.4	72	59.0	0	0	---	0.00	30.015 
22:35	68.6	68.6	68.6	71	58.8	0	0	---	0.00	30.015 
22:40	68.6	68.6	68.6	71	58.8	0	0	---	0.00	30.015 
22:45	68.4	68.4	68.4	72	59.0	0	0	---	0.00	30.015 
22:50	68.1	68.1	68.1	73	59.1	0	0	---	0.00	30.015 
22:55	67.8	67.8	67.8	73	58.8	0	0	---	0.00	30.015 
23:00	67.4	67.4	67.4	74	58.8	0	0	---	0.00	30.016 
23:05	67.1	67.1	67.1	74	58.5	0	0	---	0.00	30.016 
23:10	66.9	66.9	66.9	75	58.7	0	0	---	0.00	30.016 
23:15	66.8	66.8	66.8	75	58.6	0	0	---	0.00	30.014 
23:20	66.8	66.8	66.8	76	59.0	0	0	---	0.00	30.014 
23:25	66.6	66.6	66.6	76	58.8	0	0	---	0.00	30.014 
23:30	66.6	66.6	66.6	76	58.8	0	0	---	0.00	30.017 
23:35	66.4	66.4	66.4	76	58.6	0	0	---	0.00	30.017 
23:40	66.4	66.4	66.4	76	58.6	0	0	---	0.00	30.017 
23:45	66.3	66.3	66.3	76	58.5	0	0	---	0.00	30.017 
23:50	66.3	66.3	66.3	77	58.9	0	0	---	0.00	30.017 
23:55	66.0	66.0	66.0	77	58.6	0	0	---	0.00	30.017 

CoCoRaHS
IN-AL-39
A2 Web Hosting
Creative Commons License
GoDaddy
search engine by freefind advanced

loaded 2018-11-21 00:34:33 • last modified 2010-11-18 10:43:29
Privacy PolicyDisclaimer
• wx.awcolley.com is powered by PmWiki v.2002016 •
• all content (unless otherwise noted) © 2018 A W Colley